Location: Godiavel Galaoual
(15.2485°N, 12.6604°W)
Time: 02:24:19
(UTC+00:00)

RS-15 - Visible Passes

Search period start: 26 July 2021 00:00
Search period end: 05 August 2021 00:00
Orbit: 1886 x 2158 km, 64.8° (Epoch: 25 July)

Date Brightness Start Highest point End Pass type
(mag) Time Alt. Az. Time Alt. Az. Time Alt. Az.
26 Jul 9.7 00:34:47 15° ENE 00:34:47 15° ENE 00:36:43 10° NE visible
26 Jul 8.5 02:42:33 46° NNW 02:42:33 46° NNW 02:50:44 10° N visible
27 Jul 8.6 02:07:48 45° N 02:07:48 45° N 02:15:00 10° NNE visible
27 Jul 9.6 04:15:33 10° WNW 04:17:32 11° NW 04:20:10 10° NW visible
28 Jul 8.8 01:33:01 38° NNE 01:33:01 38° NNE 01:39:00 10° NNE visible
28 Jul 9.3 03:40:46 18° NW 03:40:49 18° NW 03:47:44 10° NNW visible
29 Jul 9.2 00:58:13 28° NE 00:58:13 28° NE 01:02:45 10° NNE visible
29 Jul 9.1 03:05:57 25° NW 03:05:57 25° NW 03:13:17 10° N visible
30 Jul 9.5 00:23:22 19° NE 00:23:22 19° NE 00:26:09 10° NE visible
30 Jul 8.9 02:31:07 32° NNW 02:31:07 32° NNW 02:38:13 10° N visible
30 Jul 9.8 23:48:31 11° NE 23:48:31 11° NE 23:49:03 10° NE visible
31 Jul 8.9 01:56:15 36° NNW 01:56:15 36° NNW 02:02:47 10° N visible
01 Aug 9.0 01:21:22 35° N 01:21:22 35° N 01:27:05 10° NNE visible
01 Aug 9.7 03:29:11 10° NW 03:29:47 10° NW 03:30:23 10° NW visible
02 Aug 9.1 00:46:26 30° NNE 00:46:26 30° NNE 00:51:08 10° NNE visible
02 Aug 9.5 02:54:10 16° NW 02:54:10 16° NW 02:59:32 10° NNW visible
03 Aug 9.4 00:11:29 23° NE 00:11:29 23° NE 00:14:55 10° NNE visible
03 Aug 9.3 02:19:12 23° NW 02:19:12 23° NW 02:25:14 10° N visible
03 Aug 9.6 23:36:29 16° NE 23:36:29 16° NE 23:38:22 10° NE visible
04 Aug 9.2 01:44:13 28° NNW 01:44:13 28° NNW 01:50:13 10° N visible
